This is the latest recevied weather packets stored in our database for station/object N1HRK. If no packets are shown the sender has not sent any weather packets the latest 10 day(s).
| Time | Temp. | Humidity | Pressure | Rain* | Wind** | Luminosity | Snow |
|---|---|---|---|---|---|---|---|
| 1777944123 | 12.22° C | 78% | 1011.8 hPa | 0 mm | - | - | - |
| 1777943554 | 12.78° C | 77% | 1011.6 hPa | 0 mm | - | - | - |
| 1777943523 | 12.78° C | 77% | 1011.6 hPa | 0 mm | - | - | - |
| 1777942923 | 12.78° C | 76% | 1011.5 hPa | 0 mm | - | - | - |
| 1777942323 | 12.78° C | 75% | 1011.1 hPa | 0 mm | - | - | - |
| 1777941723 | 12.22° C | 76% | 1010.8 hPa | 0 mm | - | - | - |
| 1777941124 | 12.78° C | 75% | 1010.6 hPa | 0 mm | - | - | - |
| 1777940524 | 12.78° C | 74% | 1010.5 hPa | 0 mm | - | - | - |
| 1777939924 | 13.33° C | 73% | 1010.3 hPa | 0 mm | - | - | - |
| 1777939323 | 13.33° C | 71% | 1010.2 hPa | 0 mm | - | - | - |
| 1777938725 | 13.33° C | 69% | 1010.1 hPa | 0 mm | - | - | - |
| 1777938123 | 13.89° C | 68% | 1010 hPa | 0 mm | - | - | - |
| 1777937523 | 13.89° C | 67% | 1010 hPa | 0 mm | - | - | - |
| 1777936923 | 14.44° C | 64% | 1009.9 hPa | 0 mm | - | - | - |
| 1777936324 | 14.44° C | 63% | 1009.7 hPa | 0 mm | - | - | - |
| 1777935724 | 14.44° C | 62% | 1009.7 hPa | 0 mm | - | - | - |
| 1777935122 | 15° C | 61% | 1009.7 hPa | 0 mm | - | - | - |
| 1777934524 | 14.44° C | 58% | 1009.7 hPa | 0 mm | - | - | - |
| 1777933924 | 15° C | 58% | 1009.6 hPa | 0 mm | - | - | - |
| 1777933324 | 15.56° C | 55% | 1009.5 hPa | 0 mm | - | - | - |
| 1777932724 | 16.11° C | 53% | 1009.6 hPa | 0 mm | - | - | - |
| 1777932123 | 16.67° C | 47% | 1009.5 hPa | 0 mm | - | - | - |
| 1777931523 | 16.67° C | 46% | 1009.3 hPa | 0 mm | - | - | - |
| 1777930923 | 17.22° C | 46% | 1009.4 hPa | 0 mm | - | - | - |
| 1777930324 | 17.78° C | 47% | 1009.4 hPa | 0 mm | - | - | - |
* Rain latest hour (hover to see other rain measurements)
** Current wind speed in m/s (hover to see current wind gust speed)